Content
SEND FEEDBACK

Daily
Averages
Monthly
Summary
United Kingdom

LONDON, ENGLAND


Home > Europe > United Kingdom > England
Elevation: 203 feet     Latitude: 51 09N     Longitude: 000 11W

WEATHER
 
SELECT A DAY
Number of Records: 299,385;   Date Range: 7/1/96 - 12/16/14
 
SHARE

PRINT THIS DATA

[ ← Previous Day ]
WEATHER ALMANAC - OCTOBER 5, 2013
[ Next Day → ]
[ °C ]   °F
Weather ElementAverageHighLow
Temperature59 °F64.4 °F (2:50 pm)51.8 °F (11:50 pm)
Dewpoint55.5 °F57.2 °F (12:50 am)51.8 °F (9:20 pm)
Humidity88.8 %100 % (12:50 am)73 % (2:50 pm)
Barometer30.12 in30.27 in (11:50 pm)29.98 in (12:50 am)
Wind Speed3.3 mph5.8 mph (10:50 am)
Weather ElementAverage
Visibility5.9 mi
Wind DirectionSSE (158.5 °)

Weather ElementTotal
Precipitation---
Heating Degree Days6.9 (Base 65)
Growing Degree Days8.1 (Base 50)
Averaged from 47 records on October 5, 2013
WEATHER CONDITIONS BREAKOUT
WIND DIRECTION BREAKOUT
WEATHER BY HOUR - OCTOBER 5, 2013
[ °C ]   °F
Local TimeTemperatureDewpointHumidityBarometerVisibilityWind DirectionWind SpeedGust SpeedPrecipitationEventsConditions
12:50 AM57.2 °F57.2 °F100 %29.98 in6.2 miSSW (210°)3.5 mphMostly Cloudy
1:20 AM59.0 °F57.2 °F94 %29.98 in6.2 miSW (220°)4.6 mphMostly Cloudy
1:50 AM59.0 °F57.2 °F94 %29.98 in6.2 miSW (220°)4.6 mphMostly Cloudy
2:20 AM57.2 °F57.2 °F100 %29.98 in6.2 miWest (260°)3.5 mphMostly Cloudy
2:50 AM57.2 °F57.2 °F100 %29.98 in6.2 miCalmOvercast
3:20 AM57.2 °F55.4 °F94 %29.98 in5.0 miVariable2.3 mphScattered Clouds
3:50 AM57.2 °F55.4 °F94 %29.98 in4.3 miSW (220°)2.3 mphOvercast
4:20 AM57.2 °F55.4 °F94 %30.01 in5.6 miVariable2.3 mphOvercast
4:50 AM57.2 °F55.4 °F94 %30.01 in4.3 miVariable3.5 mphOvercast
5:20 AM57.2 °F55.4 °F94 %30.01 in5.0 miVariable2.3 mphOvercast
5:50 AM57.2 °F55.4 °F94 %30.04 in5.0 miSW (230°)3.5 mphOvercast
6:20 AM57.2 °F55.4 °F94 %30.04 in5.0 miSouth (190°)3.5 mphMostly Cloudy
6:50 AM57.2 °F55.4 °F94 %30.04 in6.2 miSW (220°)4.6 mphScattered Clouds
7:20 AM57.2 °F55.4 °F94 %30.06 in5.0 miSW (220°)3.5 mphPartly Cloudy
7:50 AM57.2 °F55.4 °F94 %30.06 in5.0 miSW (230°)3.5 mphPartly Cloudy
8:20 AM57.2 °F55.4 °F94 %30.09 in5.6 miWest (260°)4.6 mph
8:50 AM57.2 °F55.4 °F94 %30.09 in6.2 miWest (270°)4.6 mphScattered Clouds
9:20 AM59.0 °F55.4 °F88 %30.09 in6.2 miVariable2.3 mphMostly Cloudy
9:50 AM59.0 °F55.4 °F88 %30.09 in6.2 miVariable3.5 mphMostly Cloudy
10:20 AM59.0 °F57.2 °F94 %30.12 in6.2 miWNW (300°)4.6 mphPartly Cloudy
10:50 AM60.8 °F57.2 °F88 %30.12 in6.2 miNNW (330°)5.8 mphScattered Clouds
11:20 AM62.6 °F57.2 °F82 %30.12 in6.2 miNW (310°)5.8 mphScattered Clouds
11:50 AM62.6 °F57.2 °F82 %30.12 in6.2 miWNW (290°)5.8 mphMostly Cloudy
12:20 PM62.6 °F55.4 °F77 %30.15 in6.2 miNNW (330°)4.6 mphPartly Cloudy
12:50 PM62.6 °F55.4 °F77 %30.15 in6.2 miVariable3.5 mphPartly Cloudy
1:20 PM62.6 °F55.4 °F77 %30.15 in6.2 miVariable3.5 mphPartly Cloudy
1:50 PM62.6 °F55.4 °F77 %30.15 in6.2 miVariable3.5 mphPartly Cloudy
2:20 PM62.6 °F55.4 °F77 %30.15 in6.2 miWNW (300°)4.6 mphPartly Cloudy
2:50 PM64.4 °F55.4 °F73 %30.15 in6.2 miNW (310°)4.6 mphPartly Cloudy
3:20 PM64.4 °F55.4 °F73 %30.18 in6.2 miWNW (290°)5.8 mphPartly Cloudy
3:50 PM62.6 °F55.4 °F77 %30.18 in6.2 miWSW (250°)5.8 mphPartly Cloudy
4:20 PM62.6 °F55.4 °F77 %30.18 in6.2 miWest (270°)5.8 mphPartly Cloudy
4:50 PM62.6 °F55.4 °F77 %30.18 in6.2 miWest (280°)3.5 mphPartly Cloudy
5:20 PM62.6 °F55.4 °F77 %30.18 in6.2 miWest (270°)3.5 mphPartly Cloudy
5:50 PM62.6 °F57.2 °F82 %30.18 inSW (220°)3.5 mphClear
6:20 PM62.6 °F57.2 °F82 %30.21 inSW (230°)3.5 mphClear
6:50 PM60.8 °F57.2 °F88 %30.21 inWSW (250°)2.3 mphClear
7:20 PM59.0 °F55.4 °F88 %30.21 inSW (230°)2.3 mphClear
7:50 PM59.0 °F55.4 °F88 %30.21 inVariable2.3 mphClear
8:20 PM57.2 °F53.6 °F88 %30.24 inWSW (240°)3.5 mphClear
8:50 PM55.4 °F53.6 °F94 %30.24 inVariable2.3 mphClear
9:20 PM53.6 °F51.8 °F94 %30.24 in6.2 miCalmScattered Clouds
9:50 PM55.4 °F53.6 °F94 %30.24 in6.2 miCalmMostly Cloudy
10:20 PM55.4 °F55.4 °F100 %30.24 inCalmClear
10:50 PM53.6 °F53.6 °F100 %30.24 inCalmClear
11:20 PM53.6 °F53.6 °F100 %30.24 inCalmClear
11:50 PM51.8 °F51.8 °F100 %30.27 inCalmClear
Hourly data recorded from EGKK, located miles away from London, England







STORIES FROM OUR PARTNERS